• In Hungary
  • List of Countries
  • For 7 days
  • Water Temperature
  • Satellite Maps
  • Weather Map
  • News
  • Weather Widgets
  • user-avatar
    Login

    Hourly Weather Kakolewice

    Today, 22 October, Monday

    Time Temperature Precipitation Wind Pressure Humidity
    00:00 +6°C° 0 mm 2 mps 762 mmHg 89%
    01:00 +6°C° 0 mm 2 mps 762 mmHg 89%
    02:00 +6°C° 0 mm 2 mps 762 mmHg 89%
    03:00 +6°C° 0 mm 2 mps 761 mmHg 89%
    04:00 +4°C° 0 mm 3 mps 761 mmHg 90%
    05:00 +4°C° 0 mm 3 mps 761 mmHg 89%
    06:00 +4°C° 0 mm 3 mps 761 mmHg 89%
    07:00 +4°C° 0 mm 3 mps 761 mmHg 89%
    08:00 +7°C° 0 mm 3 mps 760 mmHg 83%
    09:00 +8°C° 0 mm 4 mps 760 mmHg 76%
    10:00 +10°C° 0 mm 4 mps 760 mmHg 69%
    11:00 +11°C° 0.2 mm 4 mps 760 mmHg 71%
    12:00 +11°C° 0.2 mm 4 mps 760 mmHg 73%
    13:00 +11°C° 0.2 mm 4 mps 760 mmHg 75%
    14:00 +11°C° 0.3 mm 4 mps 760 mmHg 76%
    15:00 +11°C° 0.3 mm 4 mps 760 mmHg 77%
    16:00 +10°C° 0.3 mm 4 mps 759 mmHg 79%
    17:00 +8°C° 0 mm 4 mps 760 mmHg 79%
    18:00 +7°C° 0 mm 4 mps 760 mmHg 80%
    19:00 +8°C° 0 mm 3 mps 760 mmHg 80%
    20:00 +7°C° 0 mm 3 mps 761 mmHg 82%
    21:00 +7°C° 0 mm 3 mps 761 mmHg 83%
    22:00 +5°C° 0 mm 3 mps 761 mmHg 84%
    23:00 +5°C° 0 mm 3 mps 761 mmHg 84%

    Tomorrow, 23 October, Tuesday

    Time Temperature Precipitation Wind Pressure Humidity
    00:00 +5°C° 0 mm 4 mps 760 mmHg 84%
    01:00 +4°C° 0 mm 4 mps 760 mmHg 84%
    02:00 +4°C° 0 mm 4 mps 759 mmHg 83%
    03:00 +4°C° 0 mm 4 mps 758 mmHg 83%
    04:00 +3°C° 0 mm 5 mps 758 mmHg 82%
    05:00 +5°C° 0.3 mm 5 mps 757 mmHg 81%
    06:00 +4°C° 0.3 mm 6 mps 756 mmHg 80%
    07:00 +4°C° 0.3 mm 7 mps 755 mmHg 79%
    08:00 +4°C° 0.9 mm 8 mps 753 mmHg 80%
    09:00 +5°C° 0.9 mm 9 mps 752 mmHg 80%
    10:00 +5°C° 0.9 mm 10 mps 751 mmHg 81%
    11:00 +6°C° 0.9 mm 10 mps 750 mmHg 81%
    12:00 +6°C° 0.9 mm 10 mps 749 mmHg 82%
    13:00 +7°C° 0.9 mm 10 mps 747 mmHg 82%
    14:00 +7°C° 1.5 mm 10 mps 746 mmHg 83%
    15:00 +8°C° 1.5 mm 10 mps 746 mmHg 84%
    16:00 +9°C° 1.5 mm 10 mps 745 mmHg 86%
    17:00 +10°C° 1.2 mm 9 mps 744 mmHg 85%
    18:00 +10°C° 1.2 mm 9 mps 744 mmHg 84%
    19:00 +10°C° 1.2 mm 8 mps 743 mmHg 84%
    20:00 +10°C° 1.2 mm 9 mps 743 mmHg 82%
    21:00 +10°C° 1.2 mm 9 mps 743 mmHg 81%
    22:00 +10°C° 1.2 mm 9 mps 742 mmHg 79%
    23:00 +10°C° 0.6 mm 9 mps 742 mmHg 77%

    Day after tomorrow, 24 October, Wednesday

    Time Temperature Precipitation Wind Pressure Humidity
    00:00 +8°C° 0.6 mm 9 mps 742 mmHg 75%
    01:00 +7°C° 0.6 mm 9 mps 741 mmHg 72%
    02:00 +7°C° 0.1 mm 9 mps 742 mmHg 69%
    03:00 +6°C° 0.1 mm 9 mps 743 mmHg 66%
    04:00 +6°C° 0.1 mm 9 mps 743 mmHg 63%
    05:00 +5°C° 0 mm 9 mps 744 mmHg 61%
    06:00 +4°C° 0 mm 8 mps 745 mmHg 59%
    07:00 +4°C° 0 mm 7 mps 746 mmHg 57%
    08:00 +4°C° 0 mm 8 mps 747 mmHg 53%
    09:00 +5°C° 0 mm 9 mps 747 mmHg 49%
    10:00 +6°C° 0 mm 10 mps 748 mmHg 45%
    11:00 +6°C° 0 mm 10 mps 749 mmHg 43%
    12:00 +7°C° 0 mm 10 mps 749 mmHg 41%
    13:00 +7°C° 0 mm 9 mps 750 mmHg 39%
    14:00 +7°C° 0 mm 8 mps 750 mmHg 41%
    15:00 +6°C° 0 mm 7 mps 750 mmHg 44%
    16:00 +7°C° 0 mm 6 mps 751 mmHg 46%
    17:00 +6°C° 0 mm 5 mps 751 mmHg 51%
    18:00 +5°C° 0 mm 5 mps 752 mmHg 55%
    19:00 +5°C° 0 mm 4 mps 752 mmHg 60%
    20:00 +5°C° 0 mm 4 mps 752 mmHg 63%
    21:00 +5°C° 0 mm 4 mps 752 mmHg 66%
    22:00 +5°C° 0 mm 4 mps 752 mmHg 70%
    23:00 +5°C° 0 mm 4 mps 751 mmHg 71%

    25 October, Thursday

    Time Temperature Precipitation Wind Pressure Humidity
    00:00 +5°C° 0 mm 4 mps 751 mmHg 73%
    01:00 +5°C° 0 mm 4 mps 751 mmHg 74%
    02:00 +5°C° 0.3 mm 5 mps 750 mmHg 79%
    03:00 +6°C° 0.3 mm 5 mps 749 mmHg 84%
    04:00 +6°C° 0.3 mm 5 mps 748 mmHg 90%
    05:00 +7°C° 0.3 mm 6 mps 747 mmHg 87%
    06:00 +7°C° 0.3 mm 8 mps 747 mmHg 84%
    07:00 +8°C° 0.3 mm 9 mps 746 mmHg 81%
    08:00 +10°C° 0.1 mm 9 mps 746 mmHg 80%
    09:00 +10°C° 0.1 mm 9 mps 746 mmHg 79%
    10:00 +10°C° 0.1 mm 9 mps 746 mmHg 79%
    11:00 +10°C° 0.1 mm 9 mps 746 mmHg 75%
    12:00 +10°C° 0.1 mm 9 mps 746 mmHg 72%
    13:00 +10°C° 0.1 mm 9 mps 747 mmHg 69%
    14:00 +10°C° 0 mm 8 mps 747 mmHg 69%
    15:00 +9°C° 0 mm 7 mps 747 mmHg 69%
    16:00 +9°C° 0 mm 7 mps 748 mmHg 69%
    17:00 +9°C° 0 mm 6 mps 748 mmHg 71%
    18:00 +8°C° 0 mm 6 mps 748 mmHg 73%
    19:00 +8°C° 0 mm 5 mps 749 mmHg 74%
    20:00 +8°C° 0 mm 5 mps 749 mmHg 76%
    21:00 +7°C° 0 mm 5 mps 749 mmHg 78%
    22:00 +7°C° 0 mm 5 mps 749 mmHg 80%
    23:00 +7°C° 0 mm 4 mps 749 mmHg 81%

    26 October, Friday

    Time Temperature Precipitation Wind Pressure Humidity
    00:00 +7°C° 0 mm 4 mps 749 mmHg 83%
    01:00 +6°C° 0 mm 4 mps 749 mmHg 84%
    02:00 +6°C° 0 mm 4 mps 749 mmHg 84%
    03:00 +6°C° 0 mm 4 mps 749 mmHg 84%
    04:00 +6°C° 0 mm 4 mps 749 mmHg 84%
    05:00 +7°C° 0 mm 3 mps 749 mmHg 86%
    06:00 +5°C° 0 mm 3 mps 749 mmHg 89%
    07:00 +5°C° 0 mm 3 mps 749 mmHg 91%
    08:00 +7°C° 0 mm 3 mps 748 mmHg 87%
    09:00 +8°C° 0 mm 3 mps 748 mmHg 84%
    10:00 +8°C° 0 mm 3 mps 748 mmHg 81%
    11:00 +9°C° 0 mm 3 mps 748 mmHg 80%
    12:00 +10°C° 0 mm 4 mps 747 mmHg 79%
    13:00 +11°C° 0 mm 4 mps 747 mmHg 78%
    14:00 +11°C° 0 mm 4 mps 746 mmHg 78%
    15:00 +11°C° 0 mm 4 mps 746 mmHg 77%
    16:00 +11°C° 0 mm 4 mps 745 mmHg 77%
    17:00 +11°C° 0 mm 4 mps 745 mmHg 77%
    18:00 +11°C° 0 mm 4 mps 745 mmHg 78%
    19:00 +10°C° 0 mm 4 mps 744 mmHg 79%
    20:00 +10°C° 0 mm 4 mps 744 mmHg 80%
    21:00 +8°C° 0 mm 4 mps 744 mmHg 82%
    22:00 +8°C° 0 mm 4 mps 743 mmHg 83%
    23:00 +8°C° 0 mm 4 mps 743 mmHg 83%

    27 October, Saturday

    Time Temperature Precipitation Wind Pressure Humidity
    00:00 +8°C° 0 mm 4 mps 743 mmHg 83%
    01:00 +9°C° 0 mm 3 mps 743 mmHg 83%
    02:00 +8°C° 0 mm 3 mps 743 mmHg 85%
    03:00 +8°C° 0 mm 3 mps 743 mmHg 87%
    04:00 +8°C° 0 mm 3 mps 743 mmHg 89%
    05:00 +7°C° 0 mm 2 mps 743 mmHg 90%
    06:00 +7°C° 0 mm 2 mps 743 mmHg 92%
    07:00 +7°C° 0 mm 2 mps 742 mmHg 93%
    08:00 +8°C° 0 mm 2 mps 743 mmHg 88%
    09:00 +9°C° 0 mm 1 mps 743 mmHg 82%
    10:00 +10°C° 0 mm 1 mps 743 mmHg 77%
    11:00 +10°C° 0.2 mm 1 mps 743 mmHg 76%
    12:00 +10°C° 0.2 mm 1 mps 742 mmHg 75%
    13:00 +11°C° 0.2 mm 1 mps 742 mmHg 74%
    14:00 +10°C° 0.7 mm 1 mps 742 mmHg 78%
    15:00 +10°C° 0.7 mm 1 mps 742 mmHg 81%
    16:00 +9°C° 0.7 mm 1 mps 742 mmHg 85%
    17:00 +9°C° 0.4 mm 1 mps 742 mmHg 86%
    18:00 +7°C° 0.4 mm 2 mps 742 mmHg 87%
    19:00 +7°C° 0.4 mm 2 mps 742 mmHg 88%
    20:00 +7°C° 0.2 mm 2 mps 741 mmHg 88%
    21:00 +7°C° 0.2 mm 2 mps 741 mmHg 88%
    22:00 +7°C° 0.2 mm 3 mps 741 mmHg 87%
    23:00 +7°C° 0.3 mm 3 mps 741 mmHg 87%

    28 October, Sunday

    Time Temperature Precipitation Wind Pressure Humidity
    00:00 +5°C° 0.3 mm 3 mps 741 mmHg 86%
    01:00 +5°C° 0.3 mm 3 mps 741 mmHg 86%
    02:00 +5°C° 0.5 mm 3 mps 741 mmHg 86%
    03:00 +5°C° 0.5 mm 3 mps 741 mmHg 86%
    04:00 +5°C° 0.5 mm 3 mps 741 mmHg 87%
    05:00 +5°C° 0.3 mm 3 mps 742 mmHg 86%
    06:00 +5°C° 0.3 mm 3 mps 742 mmHg 86%
    07:00 +5°C° 0.3 mm 3 mps 743 mmHg 86%
    08:00 +5°C° 0.3 mm 3 mps 743 mmHg 83%
    09:00 +5°C° 0.3 mm 3 mps 744 mmHg 80%
    10:00 +7°C° 0.3 mm 3 mps 745 mmHg 77%
    11:00 +7°C° 0 mm 3 mps 746 mmHg 71%
    12:00 +8°C° 0 mm 3 mps 746 mmHg 66%
    13:00 +9°C° 0 mm 3 mps 747 mmHg 60%
    14:00 +8°C° 0 mm 3 mps 747 mmHg 63%
    15:00 +8°C° 0 mm 2 mps 748 mmHg 66%
    16:00 +8°C° 0 mm 2 mps 748 mmHg 69%
    17:00 +7°C° 0 mm 2 mps 748 mmHg 73%
    18:00 +6°C° 0 mm 2 mps 749 mmHg 76%
    19:00 +5°C° 0 mm 2 mps 750 mmHg 80%
    20:00 +5°C° 0 mm 2 mps 750 mmHg 82%
    21:00 +5°C° 0 mm 2 mps 750 mmHg 84%
    22:00 +4°C° 0 mm 2 mps 751 mmHg 85%
    23:00 +4°C° 0 mm 2 mps 751 mmHg 86%
    Show more